GW6149 Weather Reports


Display with metric or nautical units.
time (UTC)temp
F
wind
direction
speed
MPH
gust
MPH
rain 1hr
in
rain 24hr
in
rain mn
in
humidity
%
barometer
mb
20260507134101 52 314 3.0 4.0 0.00 0.00 0.00 53 1014.4
20260507133557 53 192 0.0 6.0 0.00 0.00 0.00 50 1014.5
20260507133055 53 32 2.0 3.0 0.00 0.00 0.00 51 1014.3
20260507132551 54 2 2.0 2.0 0.00 0.00 0.00 50 1014.4
20260507132048 55 8 2.0 2.0 0.00 0.00 0.00 51 1014.5
20260507131544 54 78 0.0 0.0 0.00 0.00 0.00 52 1014.5
20260507131042 53 76 0.0 0.0 0.00 0.00 0.00 52 1014.5
20260507130539 54 54 1.0 2.0 0.00 0.00 0.00 49 1014.6
20260507130037 54 62 0.0 0.0 0.00 0.00 0.00 50 1014.6
20260507125535 53 85 0.0 0.0 0.00 0.00 0.00 50 1014.4
20260507125032 54 69 1.0 2.0 0.00 0.00 0.00 51 1014.7
20260507124528 52 76 0.0 0.0 0.00 0.00 0.00 52 1014.7
20260507124026 51 125 2.0 2.0 0.00 0.00 0.00 55 1014.9
20260507123524 51 116 1.0 2.0 0.00 0.00 0.00 54 1014.8
20260507123021 50 155 0.0 0.0 0.00 0.00 0.00 57 1014.8
20260507122516 50 104 0.0 2.0 0.00 0.00 0.00 59 1014.8
20260507122012 50 104 2.0 2.0 0.00 0.00 0.00 59 1014.7
20260507121508 50 136 2.0 2.0 0.00 0.00 0.00 60 1014.6
20260507121004 50 81 0.0 3.0 0.00 0.00 0.00 61 1014.7
20260507120500 49 71 0.0 2.0 0.00 0.00 0.00 63 1014.7
20260507115957 49 122 0.0 0.0 0.00 0.00 0.00 63 1014.6
20260507115453 50 136 1.0 2.0 0.00 0.00 0.00 62 1014.7
20260507114949 48 87 0.0 1.0 0.00 0.00 0.00 65 1014.8
20260507114445 47 119 1.0 2.0 0.00 0.00 0.00 66 1014.5
20260507113943 46 119 1.0 2.0 0.00 0.00 0.00 72 1014.5
20260507113440 45 103 1.0 2.0 0.00 0.00 0.00 75 1014.7
20260507112937 45 100 1.0 2.0 0.00 0.00 0.00 78 1014.4
20260507112435 45 103 2.0 2.0 0.00 0.00 0.00 77 1014.2
20260507111931 45 101 0.0 0.0 0.00 0.00 0.00 77 1014.2
20260507111429 43 90 0.0 1.0 0.00 0.00 0.00 79 1014.1
20260507110925 42 106 0.0 2.0 0.00 0.00 0.00 83 1014.2
20260507110421 41 111 1.0 1.0 0.00 0.00 0.00 85 1014.2
20260507105918 41 109 1.0 1.0 0.00 0.00 0.00 84 1013.9
20260507105415 40 106 1.0 1.0 0.00 0.00 0.00 83 1014.0
20260507104911 40 114 1.0 1.0 0.00 0.00 0.00 84 1013.9
20260507104408 40 114 0.0 1.0 0.00 0.00 0.00 84 1014.1
20260507103904 39 110 2.0 2.0 0.00 0.00 0.00 85 1014.0
20260507103401 39 131 1.0 2.0 0.00 0.00 0.00 84 1013.7
20260507102857 38 132 1.0 2.0 0.00 0.00 0.00 85 1013.8
20260507102353 39 115 0.0 1.0 0.00 0.00 0.00 83 1013.7
20260507101850 38 108 3.0 3.0 0.00 0.00 0.00 84 1013.9
20260507101350 39 125 1.0 2.0 0.00 0.00 0.00 83 1013.9
20260507100847 39 131 1.0 1.0 0.00 0.00 0.00 83 1013.7
20260507100345 39 135 1.0 1.0 0.00 0.00 0.00 84 1013.8
20260507095843 39 144 1.0 1.0 0.00 0.00 0.00 82 1013.7
20260507095339 40 117 0.0 1.0 0.00 0.00 0.00 81 1013.6
20260507094837 39 145 2.0 2.0 0.00 0.00 0.00 82 1013.7
20260507094333 39 132 1.0 2.0 0.00 0.00 0.00 84 1013.5
20260507093830 41 133 2.0 2.0 0.00 0.00 0.00 78 1013.7
20260507093329 40 106 2.0 3.0 0.00 0.00 0.00 79 1013.6
20260507092826 42 89 0.0 0.0 0.00 0.00 0.00 75 1013.7
20260507092323 43 92 1.0 1.0 0.00 0.00 0.00 72 1013.7
20260507091819 43 107 0.0 2.0 0.00 0.00 0.00 71 1013.6
20260507091316 43 99 1.0 2.0 0.00 0.00 0.00 72 1013.6
20260507090811 43 99 0.0 0.0 0.00 0.00 0.00 72 1013.5
20260507090308 43 78 0.0 0.0 0.00 0.00 0.00 72 1013.6
20260507085805 44 71 0.0 0.0 0.00 0.00 0.00 71 1013.6
20260507085301 44 43 0.0 1.0 0.00 0.00 0.00 70 1013.3
20260507084759 44 63 0.0 1.0 0.00 0.00 0.00 69 1013.4
20260507084255 45 64 0.0 1.0 0.00 0.00 0.00 69 1013.4
20260507083753 45 34 0.0 1.0 0.00 0.00 0.00 67 1013.5
20260507083249 46 18 0.0 0.0 0.00 0.00 0.00 67 1013.5
20260507082745 47 347 2.0 3.0 0.00 0.00 0.00 64 1013.5
20260507082241 46 338 3.0 6.0 0.00 0.00 0.00 65 1013.6
20260507081738 47 282 3.0 4.0 0.00 0.00 0.00 66 1013.6
20260507081234 47 297 6.0 8.0 0.00 0.00 0.00 64 1013.6
20260507080731 47 304 5.0 6.0 0.00 0.00 0.00 64 1013.7
20260507080227 47 345 7.0 8.0 0.00 0.00 0.00 64 1013.6
20260507075722 47 318 4.0 6.0 0.00 0.00 0.00 65 1013.7
20260507075219 47 340 2.0 4.0 0.00 0.00 0.00 64 1013.5
20260507074715 47 343 4.0 8.0 0.00 0.00 0.00 61 1013.6
20260507074214 47 328 7.0 8.0 0.00 0.00 0.00 63 1013.8
20260507073710 47 308 6.0 6.0 0.00 0.00 0.00 64 1013.5
20260507073206 47 330 6.0 7.0 0.00 0.00 0.00 63 1013.6
20260507072704 47 321 3.0 4.0 0.00 0.00 0.00 62 1013.5
20260507072201 47 317 3.0 6.0 0.00 0.00 0.00 61 1013.5
20260507071659 47 331 4.0 6.0 0.00 0.00 0.00 65 1013.7
20260507071155 48 315 5.0 6.0 0.00 0.00 0.00 62 1013.7
20260507070652 47 318 6.0 8.0 0.00 0.00 0.00 58 1013.6
20260507070149 48 333 4.0 7.0 0.00 0.00 0.00 60 1013.8
20260507065645 47 341 3.0 4.0 0.00 0.00 0.00 59 1013.8
20260507065142 47 316 4.0 7.0 0.00 0.00 0.00 60 1013.8
20260507064640 47 318 6.0 10.0 0.00 0.00 0.00 63 1013.7
20260507064138 48 294 6.0 6.0 0.00 0.00 0.00 61 1013.8
20260507063636 47 320 7.0 8.0 0.00 0.00 0.00 63 1014.0
20260507063132 48 332 6.0 8.0 0.00 0.00 0.00 63 1013.9
20260507062629 48 343 7.0 10.0 0.00 0.00 0.00 61 1013.9
20260507062127 48 304 8.0 10.0 0.00 0.00 0.00 60 1014.0
20260507061624 48 338 7.0 10.0 0.00 0.00 0.00 60 1014.0
20260507061122 48 295 7.0 10.0 0.00 0.00 0.00 62 1013.8
20260507060620 48 333 6.0 9.0 0.00 0.00 0.00 61 1013.9
20260507060116 48 300 7.0 9.0 0.00 0.00 0.00 62 1013.7
20260507055612 48 303 8.0 9.0 0.00 0.00 0.00 62 1014.1
20260507055108 49 284 3.0 6.0 0.00 0.00 0.00 63 1013.8
20260507054604 49 348 6.0 7.0 0.00 0.00 0.00 60 1014.0
20260507054101 49 314 8.0 9.0 0.00 0.00 0.00 61 1014.1
20260507053559 49 328 6.0 7.0 0.00 0.00 0.00 61 1013.8
20260507053057 49 314 6.0 7.0 0.00 0.00 0.00 61 1013.9
20260507052555 49 335 5.0 7.0 0.00 0.00 0.00 62 1013.9
20260507052051 49 335 6.0 8.0 0.00 0.00 0.00 61 1014.2
20260507051549 49 316 5.0 8.0 0.00 0.00 0.00 61 1014.1
20260507051046 49 302 7.0 8.0 0.00 0.00 0.00 60 1014.1
20260507050542 49 323 6.0 8.0 0.00 0.00 0.00 63 1014.2
20260507050039 49 320 5.0 7.0 0.00 0.00 0.00 62 1014.1
20260507045535 49 311 6.0 8.0 0.00 0.00 0.00 60 1014.2
20260507045033 49 340 6.0 8.0 0.00 0.00 0.00 64 1014.1
20260507044529 49 339 5.0 8.0 0.00 0.00 0.00 63 1014.1
20260507044026 50 323 5.0 6.0 0.00 0.00 0.00 65 1014.1
20260507043522 49 328 9.0 10.0 0.00 0.00 0.00 65 1014.0
20260507043020 49 311 8.0 10.0 0.00 0.00 0.00 66 1014.1
20260507042515 50 320 6.0 8.0 0.00 0.00 0.00 69 1013.9
20260507042011 50 307 6.0 8.0 0.00 0.00 0.00 68 1014.1
20260507041508 50 32 3.0 7.0 0.00 0.00 0.00 70 1014.2
20260507041005 50 302 6.0 7.0 0.00 0.00 0.00 68 1014.1
20260507040501 50 318 3.0 4.0 0.00 0.00 0.00 71 1013.9
20260507035956 50 313 6.0 9.0 0.00 0.16 0.16 69 1014.1
20260507035454 50 308 4.0 7.0 0.00 0.16 0.16 71 1014.2
20260507034950 50 353 2.0 3.0 0.00 0.16 0.16 75 1013.7
20260507034447 50 349 4.0 7.0 0.00 0.16 0.16 72 1013.9
20260507033945 50 354 4.0 6.0 0.00 0.16 0.16 72 1013.8
20260507033443 50 354 4.0 6.0 0.00 0.16 0.16 74 1013.8
20260507032940 50 330 8.0 9.0 0.00 0.16 0.16 73 1013.6
20260507032437 51 0 5.0 6.0 0.00 0.16 0.16 75 1013.7
20260507031932 51 350 6.0 8.0 0.00 0.16 0.16 76 1013.8
20260507031429 51 338 10.0 11.0 0.00 0.16 0.16 76 1013.8
20260507030926 51 329 5.0 6.0 0.00 0.16 0.16 77 1014.0
20260507030423 51 350 8.0 9.0 0.00 0.16 0.16 76 1013.8
20260507025920 51 351 9.0 10.0 0.00 0.16 0.16 75 1014.1
20260507025418 51 9 6.0 9.0 0.00 0.16 0.16 78 1013.9
20260507024915 51 335 4.0 4.0 0.00 0.16 0.16 78 1013.6
20260507024412 51 334 7.0 9.0 0.00 0.16 0.16 77 1013.5
20260507023908 52 19 9.0 11.0 0.00 0.16 0.16 77 1013.3
20260507023405 52 4 3.0 6.0 0.00 0.16 0.16 77 1013.3
20260507022902 51 319 4.0 6.0 0.00 0.16 0.16 78 1013.3
20260507022359 51 3 2.0 3.0 0.00 0.16 0.16 79 1013.0
20260507021855 51 14 5.0 8.0 0.00 0.16 0.16 77 1012.8
20260507021350 52 334 4.0 4.0 0.00 0.16 0.16 80 1012.9
20260507020848 52 331 4.0 4.0 0.00 0.16 0.16 79 1013.0
20260507020345 52 326 4.0 6.0 0.00 0.16 0.16 80 1013.0
20260507015842 52 4 5.0 8.0 0.00 0.16 0.16 80 1012.6
20260507015340 52 355 4.0 8.0 0.00 0.16 0.16 80 1013.0
20260507014837 52 36 2.0 6.0 0.00 0.16 0.16 79 1013.0
20260507014333 52 8 10.0 11.0 0.00 0.16 0.16 79 1013.1
20260507013829 52 23 1.0 2.0 0.00 0.16 0.16 83 1013.1
20260507013326 52 347 4.0 4.0 0.00 0.16 0.16 82 1013.1
20260507012824 52 336 4.0 4.0 0.00 0.16 0.16 80 1013.2
20260507012320 52 300 3.0 7.0 0.00 0.16 0.16 79 1013.5
20260507011817 52 330 5.0 7.0 0.00 0.16 0.16 80 1013.6
20260507011314 52 30 1.0 2.0 0.00 0.16 0.16 79 1013.4
20260507010814 52 9 2.0 2.0 0.00 0.16 0.16 80 1013.4
20260507010309 52 113 0.0 1.0 0.00 0.16 0.16 79 1013.3
20260507005807 53 89 0.0 4.0 0.00 0.16 0.16 79 1013.4
20260507005305 53 22 3.0 4.0 0.00 0.16 0.16 79 1013.3
20260507004800 53 238 10.0 10.0 0.00 0.16 0.16 79 1013.6
20260507004258 53 55 2.0 2.0 0.00 0.16 0.16 79 1013.6
20260507003754 53 81 0.0 2.0 0.00 0.16 0.16 78 1013.5
20260507003249 53 13 4.0 9.0 0.00 0.16 0.16 79 1013.1
20260507002745 53 100 0.0 2.0 0.00 0.16 0.16 79 1012.9
20260507002241 53 50 7.0 10.0 0.00 0.16 0.16 78 1013.3
20260507001738 53 239 4.0 4.0 0.00 0.16 0.16 80 1013.3
20260507001236 53 268 5.0 7.0 0.00 0.16 0.16 80 1013.2
20260507000732 53 292 4.0 6.0 0.00 0.16 0.16 80 1013.3
20260507000228 53 226 0.0 2.0 0.00 0.16 0.16 81 1013.0
20260506235725 53 310 3.0 4.0 0.00 0.16 0.16 82 1012.8
20260506235220 53 11 2.0 4.0 0.00 0.16 0.16 82 1012.8
20260506234717 53 355 2.0 7.0 0.00 0.16 0.16 83 1012.6
20260506234215 53 312 5.0 7.0 0.00 0.16 0.16 84 1012.6
20260506233712 53 313 6.0 14.0 0.00 0.16 0.16 84 1012.6
20260506233208 53 9 5.0 9.0 0.00 0.16 0.16 85 1012.3
20260506232705 53 309 7.0 11.0 0.00 0.16 0.16 85 1012.2
20260506232200 53 321 7.0 11.0 0.00 0.16 0.16 84 1012.1
20260506231658 53 292 9.0 13.0 0.00 0.16 0.16 85 1011.9
20260506231156 53 280 9.0 14.0 0.00 0.16 0.16 85 1011.8
20260506230652 53 336 11.0 13.0 0.00 0.16 0.16 85 1011.9
20260506230149 53 325 11.0 14.0 0.00 0.16 0.16 85 1011.6
20260506225646 53 331 6.0 10.0 0.00 0.16 0.16 86 1011.8
20260506225143 54 327 7.0 10.0 0.00 0.16 0.16 85 1011.7
20260506224639 54 318 2.0 14.0 0.00 0.16 0.16 84 1011.8
20260506224136 54 332 12.0 16.0 0.00 0.16 0.16 85 1011.8
20260506223632 54 347 11.0 17.0 0.00 0.16 0.16 85 1011.6
20260506223128 54 289 8.0 11.0 0.00 0.16 0.16 86 1012.0
20260506222625 54 304 4.0 6.0 0.00 0.16 0.16 85 1011.9
20260506222121 54 345 4.0 7.0 0.00 0.16 0.16 84 1011.8
20260506221619 54 357 5.0 8.0 0.00 0.16 0.16 84 1011.5
20260506221117 54 35 4.0 7.0 0.00 0.16 0.16 85 1011.6
20260506220613 54 276 3.0 6.0 0.00 0.16 0.16 86 1011.6
20260506220109 55 337 6.0 13.0 0.00 0.16 0.16 86 1011.3
20260506215606 55 303 2.0 8.0 0.00 0.16 0.16 86 1011.4
20260506215101 55 71 0.0 1.0 0.00 0.16 0.16 86 1011.2
20260506214558 55 32 8.0 14.0 0.00 0.16 0.16 86 1011.1
20260506214055 55 96 4.0 6.0 0.00 0.16 0.16 86 1011.1
20260506213553 55 94 1.0 3.0 0.00 0.16 0.16 86 1011.2
20260506213050 55 141 4.0 8.0 0.00 0.16 0.16 86 1010.9
20260506212547 55 88 4.0 8.0 0.00 0.16 0.16 87 1010.7
20260506212042 55 185 4.0 8.0 0.00 0.16 0.16 87 1010.9
20260506211538 55 172 2.0 3.0 0.00 0.16 0.16 89 1010.9
20260506211036 54 50 3.0 4.0 0.00 0.16 0.16 88 1010.8
20260506210532 55 177 6.0 10.0 0.00 0.16 0.16 88 1010.8
20260506210029 55 58 5.0 7.0 0.00 0.16 0.16 88 1010.9
20260506205526 55 255 5.0 8.0 0.00 0.16 0.16 88 1010.6
20260506205021 55 14 7.0 8.0 0.00 0.16 0.16 89 1010.5
20260506204519 55 59 0.0 13.0 0.00 0.16 0.16 87 1010.3
20260506204016 56 309 4.0 9.0 0.00 0.16 0.16 87 1010.6
20260506203514 56 19 4.0 9.0 0.00 0.16 0.16 86 1010.5
20260506203010 56 253 2.0 3.0 0.00 0.16 0.16 87 1010.4
20260506202508 56 153 5.0 9.0 0.00 0.16 0.16 86 1010.2
20260506202003 56 226 4.0 8.0 0.00 0.16 0.16 87 1010.3
20260506201502 56 27 2.0 3.0 0.00 0.16 0.16 88 1010.3
20260506200958 57 276 4.0 10.0 0.00 0.16 0.16 87 1010.2
20260506200454 56 26 4.0 10.0 0.00 0.16 0.16 88 1010.3
20260506195950 57 227 6.0 11.0 0.00 0.16 0.16 87 1010.2
20260506195448 56 2 4.0 15.0 0.00 0.16 0.16 89 1010.4
20260506194944 56 314 13.0 15.0 0.00 0.16 0.16 89 1010.2
20260506194442 56 204 2.0 15.0 0.00 0.16 0.16 89 1010.0
20260506193938 56 290 11.0 13.0 0.00 0.16 0.16 90 1010.1
20260506193436 56 278 8.0 14.0 0.00 0.16 0.16 90 1010.2
20260506192932 57 325 8.0 13.0 0.00 0.16 0.16 91 1010.0
20260506192429 57 286 10.0 16.0 0.00 0.16 0.16 91 1009.9
20260506191926 58 276 13.0 19.0 0.00 0.16 0.16 89 1010.1
20260506191422 59 304 12.0 21.0 0.00 0.16 0.16 87 1009.5
20260506190919 59 327 5.0 8.0 0.00 0.16 0.16 86 1009.5
20260506190416 60 284 6.0 11.0 0.00 0.16 0.16 86 1009.5
20260506185913 60 302 7.0 13.0 0.00 0.16 0.16 85 1009.3
20260506185410 60 242 4.0 9.0 0.00 0.16 0.16 85 1009.4
20260506184907 60 234 7.0 10.0 0.00 0.16 0.16 85 1009.4
20260506184404 60 259 5.0 14.0 0.00 0.16 0.16 85 1009.3
20260506183901 60 148 2.0 7.0 0.00 0.16 0.16 86 1009.2
20260506183356 60 236 3.0 7.0 0.00 0.16 0.16 86 1009.2
20260506182854 60 320 4.0 6.0 0.00 0.16 0.16 86 1009.1
20260506182351 60 255 3.0 7.0 0.00 0.16 0.16 90 1009.1
20260506181848 60 246 4.0 8.0 0.00 0.16 0.16 89 1008.8
20260506181346 60 69 4.0 6.0 0.00 0.16 0.16 89 1009.0
20260506180843 60 5 6.0 8.0 0.00 0.16 0.16 88 1009.1
20260506180339 60 207 4.0 9.0 0.00 0.16 0.16 89 1009.3
20260506175835 60 337 8.0 14.0 0.00 0.16 0.16 89 1009.1
20260506175332 60 49 3.0 6.0 0.00 0.16 0.16 90 1009.2
20260506174829 60 284 9.0 14.0 0.00 0.16 0.16 91 1009.2
20260506174327 60 296 9.0 11.0 0.00 0.16 0.16 91 1009.3
20260506173824 60 311 17.0 21.0 0.00 0.16 0.16 94 1009.0
20260506173321 60 252 7.0 8.0 0.00 0.16 0.16 97 1008.8
20260506172818 60 324 2.0 4.0 0.00 0.16 0.16 97 1008.6
20260506172314 60 309 2.0 4.0 0.00 0.16 0.16 98 1008.6
20260506171812 60 141 2.0 3.0 0.00 0.16 0.16 98 1008.6
20260506171309 60 84 1.0 3.0 0.00 0.16 0.16 99 1008.7
20260506170807 59 147 0.0 3.0 0.00 0.16 0.16 98 1008.4
20260506170302 59 72 1.0 3.0 0.00 0.16 0.16 98 1008.6
20260506165801 59 106 0.0 3.0 0.00 0.16 0.16 98 1008.6
20260506165258 59 169 4.0 6.0 0.00 0.16 0.16 98 1008.6
20260506164755 59 197 5.0 7.0 0.00 0.16 0.16 97 1008.5
20260506164252 59 73 2.0 7.0 0.00 0.16 0.16 97 1008.6
20260506163749 59 218 5.0 7.0 0.00 0.16 0.16 97 1008.6
20260506163243 59 157 7.0 11.0 0.00 0.16 0.16 97 1008.3
20260506162740 59 186 5.0 8.0 0.00 0.16 0.16 98 1008.3
20260506162238 59 316 2.0 7.0 0.00 0.16 0.16 98 1008.4
20260506161735 59 54 1.0 4.0 0.00 0.16 0.16 98 1008.7
20260506161232 59 251 3.0 4.0 0.00 0.16 0.16 98 1008.4
20260506160730 59 127 6.0 7.0 0.00 0.16 0.16 98 1008.7
20260506160226 59 23 1.0 3.0 0.00 0.16 0.16 98 1008.5
20260506155725 59 261 1.0 4.0 0.07 0.16 0.16 98 1008.6
20260506155221 59 268 3.0 4.0 0.07 0.16 0.16 97 1008.5
20260506153323 59 40 2.0 7.0 0.00 0.15 0.15 93 1008.4
20260506152820 59 252 2.0 6.0 0.00 0.15 0.15 92 1008.5
20260506152317 59 251 2.0 8.0 0.00 0.15 0.15 92 1008.2
20260506151816 59 286 2.0 4.0 0.00 0.15 0.15 92 1008.3
20260506151312 60 325 3.0 3.0 0.00 0.15 0.15 93 1008.2
20260506150809 60 219 1.0 6.0 0.00 0.15 0.15 93 1008.0
20260506150306 59 140 3.0 6.0 0.00 0.15 0.15 93 1008.1
20260506145803 60 231 2.0 2.0 0.00 0.15 0.15 94 1008.0
20260506145259 60 295 2.0 4.0 0.00 0.15 0.15 94 1007.9
20260506144757 59 231 2.0 3.0 0.00 0.15 0.15 94 1008.0
20260506144253 59 261 2.0 7.0 0.00 0.15 0.15 94 1007.9
20260506143751 59 6 1.0 4.0 0.00 0.15 0.15 95 1008.0
20260506143248 59 229 4.0 4.0 0.00 0.15 0.15 94 1007.8
20260506142747 59 283 2.0 4.0 0.00 0.15 0.15 94 1007.8
20260506142244 59 238 2.0 4.0 0.00 0.15 0.15 94 1008.0
20260506141742 59 322 2.0 2.0 0.00 0.15 0.15 95 1007.7
20260506141240 59 341 2.0 3.0 0.00 0.15 0.15 95 1007.8
20260506140738 59 259 4.0 6.0 0.00 0.15 0.15 95 1007.8
20260506140234 59 238 2.0 7.0 0.00 0.15 0.15 95 1008.1
20260506135731 58 190 2.0 3.0 0.00 0.15 0.15 95 1008.0
20260506135227 58 124 1.0 6.0 0.00 0.15 0.15 95 1008.0
20260506134725 58 65 0.0 4.0 0.00 0.15 0.15 96 1008.1